Other Surface Observations
Issued by NWS

Home | Current Version | Previous Version | Text Only | Print | Product List | Glossary On
Versions: 1 2 3 4 5 6 7 8 9 10 11 12 13 14 15 16 17 18 19 20 21 22 23 24 25 26 27 28 29 30 31 32 33 34 35 36 37 38 39 40 41 42 43 44 45 46 47 48 49 50
000
SXUS52 KTAE 170618
OSOTAE
OSOTAE
North Florida/South Alabama/Southwest Georgia Weather Roundup
National Weather Service Tallahassee Florida
200 AM EDT WED SEP 17 2014

Note: "fair" indicates few or no clouds below 12,000 feet with no
significant weather and/or obstructions to visibility.

!FLZ017-115-028-034-025-170700
...North Florida...

CITY           SKY/WX    TMP DP  RH WIND       PRES   REMARKS
TALLAHASSEE    PTCLDY    74  72  93 CALM      29.96F
APALACHICOLA   CLOUDY    77  72  84 CALM      29.95F
PERRY          MOCLDY    72  70  94 CALM      29.96F
CROSS CITY       N/A     73  72  96 CALM      29.96F
HOMERVILLE     FAIR      72  72 100 CALM      29.96S
JACKSONVILLE   CLOUDY    72  72 100 W5        29.94S
$$

!FLZ112-006-005-002-011-170700
...Florida Panhandle...

CITY           SKY/WX    TMP DP  RH WIND       PRES   REMARKS
MARIANNA       CLOUDY    71  71 100 CALM      29.97S FOG
BONIFAY        NOT AVBL
PANAMA CITY NW MOCLDY    73  70  90 CALM      29.96F
TYNDALL AFB    MOCLDY    75  75 100 E2        29.96F
TYND DRONE APT FAIR      74  74  99 MISG      29.95F
DE FUNIAK SPR  FOG       70  70  99 CALM      29.98F VSB 1/2
EGLIN AFB      MOCLDY    74  71  89 CALM      29.97F
DESTIN         CLOUDY    75  72  90 CALM      29.96F
HURLBURT       CLOUDY    73  69  86 E1        29.96S
CRESTVIEW      CLOUDY    71  71 100 CALM      29.99F
PENSACOLA      CLOUDY    72  72 100 CALM      29.96S
$$

!ALZ063-066-170700
...South Alabama...

CITY           SKY/WX    TMP DP  RH WIND       PRES   REMARKS
DOTHAN         MOCLDY    71  70  96 CALM      30.01F
OZARK CAIRNS   MOCLDY    71  70  97 NW2       29.97F
FT RUCKER HELI MOCLDY    71  69  93 MISG      29.97F
RUCKER HELI 3  FAIR      71  70  98 N3        30.00F
RUCKER HELI 2  FAIR      71  70  96 CALM      29.97F
FLORALA APT    CLOUDY    71  69  93 CALM      29.99F
ANDALUSIA      MOCLDY    75  70  84 N3        29.98F
TROY           PTCLDY    70  69  97 CALM      29.99F
EUFALA         FAIR      71  69  93 CALM      29.97F
MOBILE         CLOUDY    70  70 100 W3        29.98F
$$

!GAZ120>161-170700
...Southwest and South Central Georgia...

CITY           SKY/WX    TMP DP  RH WIND       PRES   REMARKS
THOMASVILLE      N/A     72  72 100 CALM      29.96F
BAINBRIDGE     PTCLDY    73  72  94 CALM      29.97F FOG
MOODY AFB      PTCLDY    73  71  94 W2        29.95F
VALDOSTA       PTCLDY    72  70  93 CALM      29.96F
MOULTRIE       PTCLDY    72  72 100 CALM      29.96F
BLAKELY        PTCLDY    72  70  94 CALM        N/A
ALBANY         PTCLDY    72  70  93 CALM      29.98F
TIFTON         FAIR      72  71  98 CALM      29.96S
FITZGERALD     FAIR      73  70  91 CALM      29.98S
CORDELE        FAIR      71  69  93 CALM      29.98S
AMERICUS       FAIR      72  70  94 W6        29.98F
$$

!GMZ750-755-770-775-170700
...Coastal and Buoy Obs...

STATION/POSITION TIME  TEMP    WIND        PRES    VSBY  WAVE
                       AIR SEA DIR/SP/G                  HT/PER
                 (UTC) (F)     (DEG/KT/KT) (MB)    (MI)  (FT/S)
KEATON BEACH     0600   79     290/  8/ 10 1014.2F
CEDAR KEY        0600   77     300/  2/  3 1014.9F
C TOWER          0600   79      CALM  /  1 1013.9F
APALACHICOLA BUO 0600   81 85  280/ 10/ 14 1014.7F         3/ 6
PANAMA CITY BUOY 0526   80 85  310/ 12/ 16 1014.5F         3/ 3
MOBILE BUOY      0538   81 85  320/  6/  8 1015.5F         3/ 4
ORANGE BCH AL BU 0600   78 86  330/  6/  8 1014.5F         2/ 3
$$



USA.gov is the U.S. government's official web portal to all federal, state and local government web resources and services.